{"data":{"norad_id":47810,"epoch":"2026-05-25T00:55:58.239264Z","epoch_age_seconds":61845,"freshness":"FRESH","line1":"1 47810U 21018Z   26145.03886851 -.00002106  00000+0 -56155-4 0  9995","line2":"2 47810  53.1609 260.6067 0000305 127.0786 233.0243 15.31698717288296","mean_motion":15.31698717,"eccentricity":3.05e-5,"inclination_deg":53.1609,"raan_deg":260.6067,"arg_perigee_deg":127.0786,"mean_anomaly_deg":233.0243,"bstar":-5.6155e-5,"rev_number":28829,"period_min":94.013266709552,"perigee_km":470.53492891955,"apogee_km":470.95271064956,"semimajor_km":6848.8808197846,"source":"CELESTRAK","updated_at":"2026-05-25T13:38:16.601893Z"}}